Theta_e
332 333 335 334 334 333 331 330 328 327 327 327 326 325 325 326 325 325 325 325 325 325 325 325 325 325 325 325 325 326 327 327 328 328 329 329 329 330 330 330 331 332 332 333 334 334 334 335 334 333 334 334 334 334 334 335 334 334 334 334 335 334 334
333 334 334 334 332 331 330 328 328 327 326 325 324 323 324 324 323 323 323 323 323 323 322 322 322 323 323 323 323 324 325 325 325 325 326 326 326 327 327 327 328 328 329 330 331 332 332 333 334 333 333 333 333 333 334 334 335 334 334 333 334 334 335
334 334 333 333 331 329 329 328 327 326 325 324 322 321 322 322 321 321 321 321 320 320 320 320 320 321 321 321 321 323 323 323 323 323 323 323 323 324 324 324 325 326 326 326 327 328 328 331 332 331 331 332 332 332 332 333 335 336 335 334 334 334 335
333 333 332 331 329 328 327 326 325 324 322 321 321 320 320 320 320 319 320 320 319 319 319 319 319 319 319 320 321 321 321 321 320 320 320 321 321 322 322 322 323 323 324 324 324 325 326 327 328 329 329 330 330 330 331 331 332 334 334 334 334 334 334
331 330 329 328 326 326 325 324 324 323 322 320 320 319 319 319 319 318 318 318 318 318 317 317 317 317 317 319 319 318 318 318 317 317 318 319 319 319 320 320 320 321 321 322 322 323 324 324 325 326 326 327 327 327 328 329 330 331 331 331 333 334 335
327 327 326 325 325 324 323 323 323 322 321 320 319 318 318 318 317 317 317 316 316 316 316 316 316 316 316 317 317 316 316 316 315 315 316 316 317 316 317 317 318 318 319 320 320 321 321 321 322 323 323 324 325 325 325 326 328 329 329 329 330 332 334
325 324 324 323 323 322 322 322 321 320 320 318 318 317 317 317 317 316 316 316 316 315 315 315 316 315 316 316 315 315 315 314 314 315 315 315 315 315 315 316 316 317 318 318 318 318 319 319 320 320 321 322 323 323 324 325 326 326 327 328 328 329 331
323 322 322 321 321 320 320 320 319 319 318 317 317 316 316 316 316 315 315 315 315 314 314 314 314 315 315 314 314 314 313 313 313 314 314 314 314 314 314 314 315 316 316 317 317 317 317 318 318 319 320 321 321 322 322 323 323 323 324 325 326 328 329
321 320 320 319 319 319 318 318 318 317 316 316 316 315 315 315 315 315 314 314 314 314 314 314 314 314 314 313 313 313 311 312 313 313 313 313 313 313 313 313 314 315 315 315 315 315 315 316 317 317 317 318 319 320 320 320 321 321 322 323 323 325 326
319 319 318 318 318 318 317 317 316 316 316 315 315 315 314 314 314 314 313 313 313 313 313 313 313 313 312 312 312 311 311 311 312 312 312 313 313 313 313 313 313 314 313 313 313 313 313 313 313 313 313 314 315 316 317 317 317 318 319 320 321 322 323
318 318 318 318 317 317 316 316 316 315 315 315 314 314 313 313 313 313 312 312 312 312 312 312 312 311 311 311 311 310 310 310 311 311 311 312 312 312 312 311 312 312 310 310 311 310 311 310 310 309 309 310 311 312 313 314 315 316 317 317 318 318 319
317 317 317 317 316 316 316 315 315 315 314 314 313 313 312 312 311 311 310 310 310 310 310 311 311 311 311 311 310 310 309 310 310 310 310 311 311 310 310 310 310 309 309 309 308 308 308 308 307 307 307 307 308 309 310 311 311 312 312 313 314 314 315
316 316 316 315 315 315 315 315 314 314 313 312 312 312 311 310 309 309 308 308 307 308 308 309 310 310 310 310 310 309 310 309 309 310 310 309 309 309 309 309 308 308 307 307 306 306 306 305 305 305 305 305 306 306 307 308 308 308 309 310 311 311 312
315 315 315 315 314 315 314 314 313 313 312 312 311 311 310 309 308 307 306 306 306 306 306 307 308 309 309 309 309 309 309 309 309 309 309 308 308 308 308 307 307 306 305 305 305 304 304 303 303 303 303 304 304 304 305 306 306 307 307 308 308 309 309
314 314 314 314 314 314 313 312 312 312 311 311 310 309 308 308 307 306 305 305 304 304 305 306 307 308 309 309 309 308 308 308 308 307 307 307 307 306 306 306 305 305 304 304 303 303 302 302 302 302 302 303 303 303 304 304 305 305 306 306 306 307 308
314 314 314 314 314 313 313 312 311 311 310 309 308 307 307 306 305 305 304 304 303 303 303 304 306 307 308 308 308 307 307 307 307 306 306 306 306 305 305 304 304 304 303 303 302 302 302 301 301 301 301 301 302 302 302 303 303 304 304 305 305 306 307
313 313 313 313 313 313 312 312 311 310 310 309 307 306 305 305 304 304 303 303 303 302 302 303 304 306 307 307 307 306 306 306 306 305 305 305 305 304 304 303 303 303 302 302 302 301 301 301 300 300 300 300 301 301 301 302 302 303 303 304 305 305 306
313 312 312 312 312 311 311 310 310 309 309 308 307 306 305 304 303 303 302 302 302 302 301 302 303 304 306 306 306 306 306 305 305 304 304 304 304 304 303 303 303 302 302 302 301 301 300 300 300 299 299 299 300 300 301 301 302 302 303 304 304 305 306
312 312 311 311 310 310 310 309 309 308 307 307 306 305 305 304 303 302 302 301 301 301 300 300 302 303 304 305 306 305 305 304 304 304 304 303 303 303 302 302 302 302 301 301 300 300 300 299 299 298 298 299 299 300 300 301 302 303 303 304 304 305 306
311 311 310 310 310 310 309 308 308 308 307 306 306 305 304 304 303 302 301 300 299 299 300 300 301 303 304 305 306 305 304 303 303 303 303 303 302 302 301 301 301 301 301 300 300 299 299 298 297 297 297 298 299 299 300 301 302 302 303 304 304 305 306
310 309 309 309 309 308 308 308 307 307 307 306 305 305 304 304 303 302 301 299 298 299 300 300 301 302 303 304 305 305 304 303 303 303 302 302 301 301 301 301 301 301 300 300 299 299 298 297 296 296 297 298 299 299 300 301 302 302 302 303 303 304 304
309 308 308 308 307 307 307 307 307 306 306 306 305 305 304 303 302 302 301 300 298 299 300 300 300 301 302 303 304 305 304 303 302 302 302 301 301 301 300 300 301 301 300 299 298 298 297 296 296 297 298 299 299 299 300 301 302 302 301 301 301 302 302
308 308 307 307 307 306 306 306 306 306 306 306 306 305 303 302 301 301 301 299 298 299 300 300 300 301 301 302 303 304 303 302 302 302 301 301 301 300 300 300 300 300 299 299 298 297 297 297 297 298 299 299 300 300 300 301 301 301 300 300 300 300 301
307 307 306 306 306 306 306 306 306 306 306 306 306 305 304 303 301 300 299 298 297 298 300 300 301 301 302 302 303 303 303 302 302 301 301 301 300 300 299 300 300 299 299 298 297 298 298 298 298 299 299 299 299 299 299 300 300 299 299 299 298 299 299
307 306 306 306 306 306 306 306 306 306 306 306 306 306 305 303 302 300 299 297 296 297 299 300 300 301 301 302 302 303 302 302 302 301 301 301 300 299 299 299 299 299 299 298 297 297 298 299 299 299 299 299 299 299 299 298 298 298 298 298 298 298 298
306 306 305 305 305 305 305 305 305 305 305 305 306 305 305 303 302 301 299 296 296 296 298 300 301 301 301 302 302 302 302 302 302 301 301 301 300 299 298 299 299 298 298 297 296 296 298 299 299 299 299 299 299 299 298 298 297 297 297 297 297 297 297
306 305 305 305 305 305 305 305 305 305 304 305 305 305 305 303 302 301 299 297 295 296 297 299 300 301 301 302 302 302 302 302 302 301 301 301 300 299 298 298 298 298 298 297 296 296 297 299 299 299 299 299 299 299 298 298 298 298 297 297 297 296 297
305 305 305 305 305 305 305 305 304 304 304 304 304 305 305 304 303 301 299 297 295 295 296 298 300 301 301 302 303 303 302 302 302 301 301 301 300 299 298 297 297 297 297 297 296 296 296 298 299 299 299 298 299 299 298 298 298 298 298 297 297 297 297
305 305 305 305 305 305 304 304 304 303 303 303 303 304 304 304 303 302 300 298 295 295 296 297 299 300 301 302 303 303 302 302 301 301 301 301 301 299 298 297 296 296 296 296 296 296 296 296 298 298 298 298 298 299 299 299 298 298 298 298 297 297 297
305 305 304 304 304 304 304 304 303 303 303 303 303 302 302 302 302 302 301 299 296 295 295 296 297 299 300 301 302 302 302 302 302 301 301 301 301 300 299 298 296 295 295 296 296 297 297 296 296 298 298 298 298 298 299 299 299 299 298 298 298 298 298
304 304 304 304 304 304 304 304 304 304 304 303 303 302 301 301 300 300 301 300 298 296 295 295 295 296 298 300 301 301 302 302 302 301 300 300 300 299 299 298 297 295 295 296 296 296 297 297 296 297 297 298 298 298 298 299 299 299 298 298 298 298 298
303 304 304 304 303 303 304 304 304 304 303 304 303 302 302 300 300 299 299 299 299 297 296 295 295 295 295 297 298 300 300 300 301 301 300 299 299 299 298 298 297 295 295 296 296 296 297 297 296 297 297 297 298 297 297 298 299 299 298 298 298 298 298
303 303 303 303 303 303 303 303 303 303 303 303 303 303 303 302 301 300 299 299 299 298 297 295 296 296 295 295 296 297 298 298 299 300 301 300 299 298 298 297 297 296 296 296 296 296 297 297 296 297 297 297 297 297 298 299 299 299 298 298 298 298 299
303 303 303 303 303 303 303 304 303 303 303 303 303 303 303 303 303 302 301 300 300 299 298 296 296 296 296 296 295 296 296 297 298 299 300 300 299 298 297 297 297 296 296 296 296 297 297 297 296 297 296 297 297 297 298 300 300 298 298 298 298 298 299
303 303 303 303 303 303 303 304 304 304 304 304 303 303 303 303 303 303 302 302 301 300 299 298 297 296 297 297 296 296 296 296 297 298 299 299 299 299 298 298 297 297 297 296 297 297 297 297 297 297 296 297 297 297 298 299 299 298 298 298 298 298 298
303 303 303 303 303 303 303 304 304 304 304 304 304 304 303 303 303 302 302 302 302 301 300 299 298 296 296 297 297 296 296 296 296 297 298 299 299 298 298 298 297 297 297 296 296 297 297 297 297 296 296 297 297 297 297 298 298 298 298 298 298 298 298
302 303 303 303 303 303 303 303 303 304 304 303 303 304 303 303 303 302 301 301 300 300 300 300 298 296 296 297 297 296 296 296 297 297 298 298 298 298 298 298 297 297 297 296 296 297 297 296 296 296 296 296 296 296 297 297 297 297 297 297 298 298 298
Wind_Speed
7 7 8 9 9 10 11 10 9 9 9 9 11 12 11 11 12 12 10 10 10 11 11 11 12 14 14 13 14 14 15 16 16 16 16 17 17 17 20 21 19 18 16 13 10 7 5 6 11 14 15 16 17 17 17 17 18 19 20 21 20 20 20
8 8 9 9 10 11 11 10 10 9 9 10 10 11 11 11 11 11 11 10 10 11 11 11 12 13 14 13 13 14 16 15 14 15 16 17 16 17 19 20 20 20 19 18 16 13 9 7 7 8 13 18 17 17 17 18 19 19 19 20 21 20 20
9 9 10 10 11 10 11 11 9 9 10 10 10 10 10 10 10 10 11 11 11 11 12 12 12 13 13 13 14 14 15 16 15 15 15 17 17 17 18 18 18 18 18 16 17 19 15 10 8 8 12 15 13 16 19 18 17 17 17 18 20 22 22
9 9 10 11 10 10 11 9 8 7 8 9 9 10 10 10 10 10 11 10 11 12 11 11 13 13 12 13 14 14 14 16 16 15 15 18 18 18 17 17 17 17 16 14 16 18 15 11 10 8 12 16 15 17 21 22 21 17 16 17 19 21 23
10 10 10 11 10 10 9 7 7 8 9 9 8 10 10 10 10 10 11 10 11 12 12 12 13 13 13 14 14 14 15 15 16 16 16 18 19 19 18 18 18 18 17 16 17 19 17 15 13 8 11 17 16 17 22 24 24 20 19 18 19 20 21
11 10 10 11 10 8 7 7 7 8 9 10 8 9 10 9 10 10 10 11 11 12 13 13 13 14 14 14 14 15 15 15 16 16 15 16 17 18 18 17 17 17 17 18 19 20 19 20 17 11 13 17 13 15 22 23 21 20 21 20 18 16 18
11 10 10 10 10 9 8 8 8 8 9 9 8 8 8 8 9 10 10 11 12 12 13 13 13 14 14 13 13 15 15 15 16 15 14 15 15 16 17 16 17 16 16 18 19 19 19 19 18 14 14 16 14 14 17 19 20 18 18 21 22 21 17
10 9 9 9 9 9 9 9 8 8 8 8 7 8 8 8 9 10 11 12 12 13 13 14 14 14 14 14 14 15 15 16 16 15 15 15 15 16 17 17 17 16 15 16 17 18 18 17 18 18 16 12 11 11 11 14 17 16 18 21 22 24 22
10 10 10 10 10 9 9 9 9 8 8 8 7 8 8 9 10 10 11 12 13 13 14 14 15 15 14 14 15 16 16 17 16 16 16 16 16 16 16 17 17 16 16 18 18 19 20 20 19 20 19 15 11 8 8 10 11 13 19 22 22 23 24
12 12 12 11 10 10 9 9 9 9 8 7 8 8 8 9 10 11 11 12 13 13 14 14 14 15 14 14 15 16 17 17 16 16 17 16 16 16 17 18 17 18 20 20 20 20 21 22 21 21 21 20 16 10 7 8 8 11 18 22 22 23 25
12 12 12 12 11 11 10 10 10 10 9 8 8 8 9 10 11 11 12 13 13 14 14 14 14 15 15 15 15 16 17 17 16 16 17 17 17 18 19 20 19 20 21 21 20 21 21 21 22 21 21 20 19 15 11 9 9 12 19 22 23 26 28
13 13 13 13 12 12 11 11 11 10 10 10 9 9 10 11 11 12 13 14 14 15 15 15 15 15 15 15 15 16 16 16 16 16 17 17 17 18 19 20 19 20 21 21 20 20 20 20 21 20 20 19 20 18 17 13 9 13 20 22 25 29 30
14 14 13 13 12 12 12 11 11 11 11 11 10 10 11 12 12 13 14 15 16 16 16 16 15 15 15 16 15 15 16 16 16 17 18 18 18 18 19 19 19 20 21 21 20 20 20 20 21 20 20 20 20 19 19 16 11 15 23 23 25 30 31
15 14 13 13 13 12 12 12 12 12 12 11 11 11 12 13 14 14 15 16 17 17 17 16 16 15 15 16 15 16 17 17 18 18 19 19 19 20 20 19 19 20 21 21 20 20 20 20 21 21 20 20 20 20 20 19 15 16 23 25 24 28 31
15 15 14 13 13 13 13 13 12 12 12 12 12 12 13 14 14 15 16 17 17 17 17 16 16 16 16 16 16 17 18 18 19 20 20 20 20 20 20 20 20 20 21 21 21 20 20 21 22 22 22 21 21 21 20 20 20 18 22 26 26 26 29
15 15 14 14 14 14 13 13 13 12 12 12 13 14 14 15 15 16 17 17 18 18 17 16 16 15 16 17 17 17 18 18 19 20 20 20 20 20 20 20 20 21 21 21 21 21 21 22 23 23 24 22 22 22 21 20 21 21 22 26 27 26 27
15 15 15 14 14 14 14 14 13 12 12 13 13 14 15 16 17 17 18 18 18 18 17 16 16 15 16 17 17 18 18 18 19 19 19 20 20 20 20 20 20 21 22 21 22 22 22 23 24 24 24 24 23 23 23 21 22 22 22 24 27 27 26
15 15 15 15 15 15 15 14 14 13 13 13 13 14 15 16 17 18 18 18 18 18 18 16 15 15 15 16 17 18 18 18 19 19 19 20 20 21 21 20 20 22 22 22 22 22 23 24 25 24 24 24 23 23 24 24 23 23 23 24 26 27 27
15 16 16 16 15 15 15 15 15 14 14 14 14 15 15 16 17 18 19 19 18 18 19 18 16 15 15 16 16 17 18 18 18 18 19 21 21 21 21 20 20 21 22 22 23 24 25 26 25 25 25 23 23 24 25 25 24 23 23 24 24 26 27
16 16 16 16 15 15 15 15 14 14 13 14 14 15 15 16 16 17 18 20 20 19 20 21 19 18 17 16 15 16 17 17 18 18 19 20 20 21 21 20 20 22 22 23 26 26 26 27 26 25 24 23 24 25 25 24 24 23 23 23 24 25 25
16 16 16 16 16 15 15 15 14 14 14 14 14 14 15 15 16 16 17 19 20 19 19 20 21 20 18 16 15 15 16 17 18 18 18 19 19 20 20 20 20 22 23 25 28 28 28 28 26 24 24 27 29 29 27 25 23 22 23 23 24 24 25
17 16 16 17 16 16 16 15 15 14 14 14 14 15 15 15 16 17 17 18 19 18 17 18 19 18 17 17 16 15 15 16 17 17 17 17 18 19 20 20 20 21 23 27 30 31 29 26 23 23 26 30 33 33 32 27 22 21 22 22 24 25 24
17 17 17 17 16 16 15 15 15 14 14 14 14 14 15 16 17 17 17 19 19 18 16 16 16 15 15 16 15 15 14 15 15 15 15 16 17 19 20 20 19 19 23 29 33 34 31 25 23 24 27 29 30 31 32 27 20 20 21 21 23 25 23
17 17 17 16 16 16 15 15 15 14 14 13 13 13 14 15 17 17 18 20 21 18 15 15 14 14 14 14 13 13 13 13 13 14 14 15 18 20 20 19 18 19 24 30 35 36 33 28 27 28 29 28 26 28 30 26 21 22 23 22 24 25 22
17 17 17 16 16 15 15 15 14 14 13 13 13 13 13 15 16 17 19 22 22 18 14 13 13 14 14 13 12 12 12 12 13 13 13 14 18 21 21 19 18 19 23 28 34 36 33 30 30 30 30 28 27 27 28 27 25 26 26 24 25 25 24
17 17 17 16 16 16 15 15 14 14 13 13 13 13 13 14 15 16 18 22 23 20 14 11 11 12 12 12 12 12 11 11 12 14 13 13 17 21 22 20 18 20 23 26 32 36 32 30 30 31 30 29 29 28 27 28 28 29 29 27 26 28 28
17 17 17 16 16 16 15 15 14 13 13 13 12 12 13 14 15 15 16 19 22 22 18 11 8 9 9 9 10 11 11 10 12 15 13 13 16 19 21 21 19 20 23 26 31 34 32 29 29 30 30 29 28 28 29 30 31 32 33 33 30 32 33
18 17 17 16 16 15 15 14 13 12 12 12 12 11 12 13 14 14 16 18 20 22 20 15 10 8 8 9 8 10 12 12 13 14 14 13 15 16 20 22 20 19 22 25 28 31 31 29 27 27 29 28 27 29 31 32 33 33 35 36 34 34 34
18 17 17 17 16 15 14 13 13 12 12 12 11 11 11 12 13 13 14 16 20 22 21 18 13 10 9 11 11 11 12 13 14 15 14 13 13 14 17 21 22 22 23 26 27 28 29 30 27 25 26 27 28 29 32 35 36 36 36 36 35 35 34
18 17 17 17 16 15 14 13 12 12 12 12 11 11 12 12 12 13 12 13 18 21 22 20 17 13 11 12 15 15 13 13 14 15 14 13 12 12 15 19 23 25 26 27 27 27 28 29 29 26 25 28 30 29 30 35 38 39 38 37 37 37 36
19 18 18 17 16 15 13 12 11 11 11 11 12 12 13 13 13 13 12 11 14 19 21 21 19 18 15 13 15 17 14 13 14 15 14 14 13 13 15 18 22 26 28 28 27 28 28 29 30 29 27 29 31 30 31 32 35 39 42 41 41 41 40
19 19 19 17 16 15 13 12 11 10 10 11 11 11 12 13 13 13 13 12 12 14 18 20 21 21 20 17 16 17 16 14 15 15 14 13 14 15 15 17 21 26 29 28 27 28 28 29 31 31 28 28 30 33 34 31 31 38 43 42 42 42 42
19 19 18 17 15 14 13 12 11 10 10 10 10 10 10 10 10 10 11 13 13 12 14 18 19 21 22 21 19 18 18 17 16 15 14 13 13 15 17 18 21 26 29 29 28 28 28 31 32 30 29 29 30 34 36 28 26 35 41 40 41 41 41
18 18 17 17 15 13 12 10 10 10 11 11 10 10 10 9 8 8 7 7 9 11 12 14 16 18 20 22 22 21 20 18 17 16 14 13 13 15 17 19 22 26 27 29 30 27 27 32 32 30 31 31 29 33 34 25 23 34 39 38 40 41 40
18 17 17 16 15 13 11 10 10 11 11 10 10 9 9 8 8 7 6 4 4 7 10 12 14 15 17 19 20 21 20 17 17 16 14 13 13 15 17 19 23 26 26 28 30 27 26 31 32 30 32 31 29 32 32 26 26 33 36 36 38 39 39
17 17 16 16 15 13 12 11 12 12 11 11 10 9 8 8 8 7 7 6 5 5 7 11 13 13 14 16 17 19 18 16 15 15 14 13 13 16 17 19 23 25 24 26 29 26 25 29 30 29 32 30 28 31 32 28 29 32 34 34 36 37 38
17 17 17 15 14 13 12 13 13 12 11 11 10 9 8 7 8 8 7 8 8 6 6 10 12 11 12 13 15 16 16 14 13 14 14 12 13 15 17 18 21 23 21 24 28 25 24 28 29 28 30 30 28 31 32 30 29 32 33 33 33 35 37
Wind_Direction
159 156 122 107 102 95 87 76 69 72 65 56 53 47 42 37 34 32 26 27 31 25 18 15 15 14 13 9 7 7 4 2 3 359 356 355 350 345 346 347 343 337 327 316 303 292 294 300 310 315 313 311 300 284 280 277 275 277 278 275 269 265 264
155 136 114 104 101 94 92 88 80 78 71 59 51 44 38 35 34 35 32 28 25 24 20 17 16 15 13 11 11 10 6 5 5 1 359 358 354 349 347 345 342 341 341 339 336 332 328 314 311 318 322 320 309 295 290 282 277 275 276 276 271 265 260
141 128 117 108 104 98 94 90 80 72 64 56 50 43 38 37 37 36 34 30 26 25 21 19 18 14 12 15 14 9 10 11 7 5 5 1 357 352 350 348 344 343 343 342 345 345 340 330 324 322 322 324 319 315 315 307 292 277 271 271 268 267 264
125 128 117 106 101 94 90 86 81 77 68 59 51 47 42 41 41 38 35 32 30 27 23 23 19 13 17 20 15 13 14 14 10 11 10 4 1 357 356 354 349 348 348 342 339 338 334 328 326 321 321 326 326 323 325 326 319 301 282 271 262 261 265
105 109 102 98 93 87 88 90 92 89 80 70 57 49 45 44 44 40 38 35 32 28 24 27 21 18 26 23 17 18 16 12 12 14 11 6 5 4 360 357 354 351 346 338 334 333 331 331 329 320 323 330 327 321 323 325 323 316 305 290 271 259 258
99 96 94 93 94 97 97 91 86 81 75 68 58 52 46 45 46 41 39 36 34 30 27 29 26 23 29 27 21 22 20 18 16 15 12 8 7 5 1 357 354 350 344 342 344 343 343 343 338 331 327 327 320 313 316 317 316 318 317 313 304 283 262
102 98 92 88 95 101 95 90 85 80 75 67 60 57 50 49 49 43 40 37 35 33 30 30 29 26 30 30 26 24 22 20 17 16 14 10 10 7 3 359 354 349 346 348 352 349 347 345 339 332 326 321 315 311 310 313 316 316 318 320 323 320 301
110 108 103 97 100 100 96 96 92 85 82 74 66 60 55 55 53 45 41 40 37 36 34 34 33 31 32 31 28 27 24 20 16 15 14 11 11 9 5 2 354 348 350 354 354 350 345 342 336 331 330 325 319 318 315 317 318 314 318 322 321 322 324
122 120 117 111 106 105 105 101 95 92 87 81 73 63 56 53 54 51 44 41 40 38 37 37 35 33 34 32 30 28 24 19 16 15 14 10 10 9 5 2 356 353 1 4 359 354 351 348 346 343 342 339 331 327 323 322 320 314 320 323 316 313 320
123 120 119 117 112 110 109 102 98 95 88 82 75 66 59 54 53 53 47 43 42 39 39 40 37 36 36 35 32 28 24 20 18 18 14 9 9 9 6 5 4 5 9 7 0 358 356 353 354 352 349 344 338 332 322 322 322 315 319 322 317 313 317
122 120 119 118 116 112 108 104 99 93 87 83 76 66 63 59 54 53 51 47 44 41 42 42 40 39 38 38 36 31 27 23 21 20 15 11 11 11 9 9 11 10 7 4 0 359 357 357 355 350 347 343 338 333 325 319 313 311 318 321 317 315 317
121 119 117 115 114 111 107 103 97 92 88 82 76 69 65 61 58 56 52 49 47 44 43 43 42 40 38 40 37 32 28 23 22 22 18 15 14 12 11 10 12 12 6 2 1 358 357 357 354 346 342 339 336 332 325 318 308 309 315 316 312 311 312
118 117 117 115 113 109 105 101 94 90 86 81 76 71 66 63 60 57 53 50 48 44 42 42 42 41 39 40 36 32 28 24 23 23 19 18 18 16 13 10 12 12 8 3 0 358 356 354 350 345 341 337 333 331 326 319 307 305 308 309 309 308 310
117 116 116 115 112 107 102 99 94 90 87 82 77 73 68 65 61 57 53 49 46 43 42 41 42 42 41 40 36 33 30 26 26 26 22 20 20 18 14 12 12 11 7 4 0 357 354 351 348 344 341 337 332 330 327 319 311 306 306 309 310 308 309
116 115 116 115 110 106 102 98 95 92 88 82 79 75 71 66 61 57 53 48 45 43 41 42 45 44 41 39 38 35 32 30 29 28 25 22 21 18 15 14 13 10 6 3 0 357 354 350 348 343 340 337 332 329 328 321 315 311 309 311 312 311 312
115 113 113 111 108 106 103 100 98 94 91 86 81 76 71 67 62 58 53 47 43 40 41 46 48 44 41 40 39 36 34 32 32 30 28 25 21 19 17 15 12 8 5 2 360 357 353 349 346 343 339 337 332 329 328 325 320 314 310 311 313 314 314
113 110 109 107 106 105 102 102 100 97 95 89 82 77 72 66 62 57 52 46 42 39 42 49 51 47 44 43 41 38 36 35 35 33 29 27 24 20 18 15 12 8 4 1 358 354 351 347 343 341 338 335 333 330 328 326 322 317 312 311 312 314 313
109 107 107 105 104 103 102 102 100 98 95 90 85 80 73 66 62 57 51 46 43 41 44 53 58 51 43 42 44 41 38 38 36 34 32 29 25 22 19 15 12 8 4 360 356 351 347 344 340 337 336 334 334 332 328 325 322 319 315 312 312 313 313
110 109 108 106 106 105 103 102 100 98 94 91 87 81 75 69 64 58 51 48 47 47 48 53 58 56 50 50 50 44 41 41 38 35 34 31 26 22 19 15 11 7 5 360 354 348 345 342 338 335 335 334 332 331 328 326 325 320 316 314 313 313 313
114 111 110 109 108 105 104 103 101 99 97 94 89 83 77 71 66 60 52 48 51 55 55 53 56 60 59 57 53 46 43 43 40 38 36 31 26 22 17 14 11 9 6 360 352 347 344 342 338 335 333 329 326 324 321 324 328 326 322 322 318 316 316
115 112 110 109 107 105 103 101 100 99 97 94 89 83 79 74 68 63 54 49 53 60 60 56 56 58 56 52 50 47 46 45 41 39 36 30 24 21 16 14 13 10 5 359 352 347 346 345 341 336 335 334 330 326 321 320 325 330 329 327 324 320 319
115 113 110 107 106 104 103 101 100 98 95 92 89 85 81 75 70 65 58 52 54 61 62 57 53 52 50 50 50 50 49 48 43 40 37 30 24 21 16 14 14 10 4 359 355 353 352 353 350 343 341 342 337 333 329 323 323 332 334 329 326 323 319
117 115 111 108 108 105 103 102 100 96 94 92 90 87 82 77 71 66 61 55 54 61 64 60 57 54 52 51 52 54 53 49 46 43 37 32 27 21 17 15 15 10 5 2 2 4 5 4 3 357 351 348 342 340 339 334 330 339 339 333 329 326 320
118 117 114 110 109 106 104 103 99 96 95 93 92 89 83 78 72 66 62 57 55 59 63 64 65 62 60 57 53 58 57 49 47 45 39 35 30 23 17 16 18 13 9 6 7 10 12 9 7 3 358 356 353 351 351 348 345 347 342 332 329 328 323
120 120 116 113 111 108 105 103 99 97 95 92 92 89 84 81 75 67 62 57 54 57 62 69 68 64 66 61 54 59 59 51 46 42 41 41 34 26 20 18 20 16 11 9 9 11 11 10 8 5 1 2 3 2 0 357 352 347 340 332 330 330 324
122 120 117 115 113 109 106 102 99 97 95 93 91 87 85 84 77 69 62 56 53 53 57 68 67 64 66 61 57 61 58 51 47 39 41 45 34 28 26 23 19 14 11 10 10 11 11 11 10 7 4 6 8 6 3 359 356 353 348 341 334 331 329
122 119 118 116 112 109 106 102 100 97 95 94 91 87 87 85 79 72 64 56 52 49 50 59 66 61 56 52 58 62 54 50 48 40 40 44 35 31 31 26 18 12 9 9 9 10 12 11 9 8 8 9 8 6 4 0 359 358 355 351 343 336 337
122 119 117 114 109 107 106 104 103 100 97 96 93 90 90 88 83 76 65 56 52 48 47 53 63 59 48 41 49 58 53 47 45 41 41 41 36 35 33 26 19 10 5 4 5 7 9 9 7 6 9 11 8 6 6 4 1 358 355 354 349 343 342
122 120 118 115 110 108 107 106 105 102 99 97 96 94 91 89 86 80 67 56 52 51 49 51 56 58 49 40 42 51 52 47 42 42 41 33 28 33 32 24 16 9 3 1 1 2 4 5 4 359 360 2 1 1 5 5 4 1 356 354 353 349 348
124 122 119 116 113 111 110 110 110 110 107 103 100 97 92 88 86 82 75 60 52 52 52 50 52 54 50 46 47 47 45 41 39 37 37 33 25 23 20 14 10 8 4 1 0 360 359 359 359 356 351 351 351 353 358 2 3 2 358 356 356 355 354
125 123 120 118 117 115 114 116 117 118 117 114 111 105 95 90 85 81 80 72 57 52 51 50 50 50 49 50 51 46 39 34 32 27 28 33 28 17 9 3 4 7 5 2 1 0 359 356 354 353 349 347 346 346 348 354 359 0 360 359 359 360 359
125 122 120 118 118 116 117 119 121 123 125 124 121 115 105 97 92 85 82 78 67 54 50 49 48 47 45 45 49 47 40 32 26 20 20 26 23 16 9 1 0 5 6 4 1 0 1 358 354 352 349 346 346 345 345 346 353 358 360 359 359 360 0
124 123 121 119 119 119 121 126 130 132 130 125 121 117 113 109 106 100 88 78 73 64 52 48 48 45 42 41 44 45 39 29 20 13 13 18 16 12 8 1 358 2 5 5 2 1 3 0 356 354 351 348 348 349 348 346 352 358 359 358 358 359 0
125 124 123 121 121 121 125 134 138 135 128 125 123 121 121 119 117 118 109 86 75 70 55 45 44 44 40 38 39 39 35 29 22 12 7 10 11 8 4 359 355 358 3 3 0 0 2 1 360 359 356 355 356 355 353 353 356 357 357 358 359 0 1
126 124 123 122 122 124 131 135 134 131 129 128 129 129 128 127 123 122 126 119 90 78 58 39 37 42 39 35 34 32 29 27 24 16 5 2 2 358 354 352 353 356 0 0 358 359 1 1 2 3 1 1 3 1 357 358 0 358 355 357 359 0 1
127 124 124 125 126 129 135 134 132 133 134 135 136 136 134 133 129 123 118 110 101 92 63 36 30 39 41 35 31 26 21 20 21 18 10 2 356 347 341 342 349 355 359 359 357 359 2 1 3 4 3 3 5 4 360 360 2 360 356 356 359 0 0
127 125 126 128 131 135 140 141 142 146 148 148 148 144 140 136 130 123 116 106 95 87 67 36 25 33 42 39 32 22 15 15 21 23 17 5 354 345 341 343 351 356 0 360 358 0 3 3 3 5 4 4 6 6 3 1 2 3 359 357 359 1 0